Flag for Portugal Weather past 2 weeks in Viseu, Portugal

Now
42 °F

Quite cool.


Feels Like: 36 °F
Forecast: N/A
Wind: 9 mph from East

Location: Viseu

Current Time: Dec 29, 2014 at 2:32:26 PM

Latest Report: Dec 29, 2014 at 1:00 PM


Visibility: N/A

Pressure: 30.56 "Hg

Humidity: 41%

Dew point: 20 °F

Location of ViseuLocation

Historic Weather in Viseu — Graph

°F

Viseu temperature yesterday

Maximum temperature yesterday: 51 °F (at 2:00 PM)
Minimum temperature yesterday: 38 °F (at 11:00 PM)
Average temperature yesterday: 45 °F

Past Weeks' High & Low Weather Summary

 TemperatureHumidityPressure
High56 °F (Dec 20, 2:00 PM)100% (Dec 16, 3:00 AM)30.61 "Hg (Dec 16, 3:00 AM)
Low32 °F (Dec 19, 11:00 PM)39% (Dec 20, 1:00 PM)29.96 "Hg (Dec 14, 2:00 PM)
Average44 °F82%30.42 "Hg
* Reported Dec 14 1:00 PM — Dec 29 1:00 PM, Viseu, Weather by CustomWeather, © 2014

Note: Actual official high and low records may vary slightly from our data, if they occured in-between our weather recording intervals... More about our weather records

Advertising

Viseu weather history for previous 24 hours

 ConditionsComfort  
Time TempWeatherWind HumidityBarometerVisibility
1:00 PM
Dec 29
42 °FQuite cool.9 mph41%30.56 "HgN/A
12:00 PM40 °FScattered clouds.10 mph41%30.58 "Hg25 mi
11:00 AM38 °FPassing clouds.13 mph48%30.60 "Hg25 mi
10:00 AM36 °FPassing clouds.10 mph62%30.61 "Hg25 mi
9:00 AM33 °FSunny.12 mph70%30.58 "Hg25 mi
8:00 AM32 °FChilly.12 mph72%30.55 "HgN/A
7:00 AM32 °FChilly.9 mph73%30.55 "HgN/A
6:00 AM32 °FChilly.8 mph76%30.53 "HgN/A
5:00 AM33 °FChilly.8 mph75%30.51 "HgN/A
4:00 AM33 °FChilly.8 mph77%30.50 "HgN/A
3:00 AM34 °FChilly.8 mph77%30.50 "HgN/A
2:00 AM35 °FChilly.7 mph77%30.48 "HgN/A
1:00 AM36 °FChilly.8 mph79%30.45 "HgN/A
12:00 AM37 °FChilly.7 mph76%30.43 "HgN/A
11:00 PM
Dec 28
38 °FChilly.7 mph73%30.40 "HgN/A
10:00 PM39 °FChilly.6 mph74%30.37 "HgN/A
9:00 PM39 °FChilly.8 mph75%30.33 "HgN/A
8:00 PM40 °FQuite cool.7 mph73%30.32 "HgN/A
7:00 PM39 °FChilly.5 mph74%30.30 "HgN/A
6:00 PM42 °FQuite cool.6 mph69%30.27 "HgN/A
5:00 PM44 °FQuite cool.7 mph66%30.24 "HgN/A
4:00 PM49 °FCool.7 mph65%30.21 "HgN/A
3:00 PM50 °FCool.7 mph68%30.19 "HgN/A
2:00 PM51 °FCool.6 mph72%30.19 "HgN/A
Weather by CustomWeather, © 2014

See weather overviewHow to use our weather pages